Location: Recife
(8.0585°S, 34.8848°W)
Time: 12:35:58
(UTC-03:00)

Vanguard 1 Rocket - Pass Details

Date: 23 April 2026
Orbit: 655 x 4212 km, 34.3° (Epoch: 12 May)

Event Time Altitude Azimuth Distance (km) Brightness Sun altitude
Rises 01:38:44 0° 325° (NW) 7,728 12.0 -55.1°
Reaches altitude 10° 01:46:42 10° 339° (NNW) 6,065 11.4 -53.2°
Maximum altitude 01:58:20 22° 21° (NNE) 3,950 10.7 -50.3°
Drops below altitude 10° 02:05:58 10° 67° (ENE) 3,874 11.1 -48.5°
Sets 02:09:27 0° 83° (E) 4,405 11.6 -47.6°
